Location: *
(28.3744°N, 81.5492°W)
Time: 04:24:17
(UTC+00:00)

Cosmos 1371 Rocket - Pass Details

Date: 15 June 2025
Orbit: 750 x 785 km, 74.0° (Epoch: 11 July)

Event Time Altitude Azimuth Distance (km) Brightness Sun altitude
Rises 01:11:05 0° 347° (NNW) 3,255 8.0 -9.6°
Reaches altitude 10° 01:13:30 10° 350° (N) 2,319 7.2 -10.1°
Maximum altitude 01:18:45 69° 74° (ENE) 821 4.0 -11.0°
Enters shadow 01:23:41 11° 157° (SSE) 2,199 5.9 -11.9°
